This is the latest recevied weather packets stored in our database for station/object KE8URB. If no packets are shown the sender has not sent any weather packets the latest 10 day(s).
| Time | Temp. | Humidity | Pressure | Rain* | Wind** | Luminosity | Snow |
|---|---|---|---|---|---|---|---|
| 1787920851 | 17.22° C | 99% | 1020.1 hPa | 0 mm | - | 29 W/m² | - |
| 1787920545 | 16.67° C | 99% | 1019.9 hPa | 0 mm | - | 28 W/m² | - |
| 1787920246 | 16.67° C | 99% | 1020.3 hPa | 0 mm | - | 28 W/m² | - |
| 1787919938 | 16.11° C | 99% | 1020.2 hPa | 0 mm | - | 27 W/m² | - |
| 1787919637 | 16.11° C | 99% | 1020.3 hPa | 0 mm | - | 25 W/m² | - |
| 1787919333 | 16.11° C | 99% | 1020.1 hPa | 0 mm | - | 23 W/m² | - |
| 1787919029 | 16.11° C | 99% | 1020 hPa | 0 mm | - | 23 W/m² | - |
| 1787918723 | 15.56° C | 99% | 1020 hPa | 0 mm | - | 21 W/m² | - |
| 1787918422 | 15° C | 99% | 1019.8 hPa | 0 mm | - | 19 W/m² | - |
| 1787918116 | 15° C | 99% | 1019.7 hPa | 0 mm | - | 18 W/m² | - |
| 1787917815 | 15° C | 99% | 1019.7 hPa | 0 mm | - | 16 W/m² | - |
| 1787917513 | 15° C | 99% | 1019.6 hPa | 0 mm | - | 15 W/m² | - |
| 1787917209 | 15° C | 99% | 1019.5 hPa | 0 mm | - | 13 W/m² | - |
| 1787916908 | 15° C | 99% | 1019.6 hPa | 0 mm | - | 12 W/m² | - |
| 1787916608 | 14.44° C | 99% | 1019.4 hPa | 0 mm | - | 10 W/m² | - |
| 1787916302 | 14.44° C | 99% | 1019.5 hPa | 0 mm | - | 10 W/m² | - |
| 1787915996 | 14.44° C | 99% | 1019.3 hPa | 0 mm | - | 7 W/m² | - |
| 1787915692 | 14.44° C | 99% | 1019.3 hPa | 0 mm | - | 7 W/m² | - |
| 1787915388 | 14.44° C | 99% | 1019.1 hPa | 0 mm | - | 4 W/m² | - |
| 1787915088 | 15° C | 99% | 1019.1 hPa | 0 mm | - | 3 W/m² | - |
| 1787914786 | 15° C | 99% | 1019.1 hPa | 0 mm | - | 2 W/m² | - |
| 1787914482 | 14.44° C | 99% | 1019.1 hPa | 0 mm | - | 1 W/m² | - |
| 1787914182 | 15° C | 99% | 1019 hPa | 0 mm | - | 0 W/m² | - |
| 1787913881 | 15° C | 99% | 1019 hPa | 0 mm | - | 0 W/m² | - |
| 1787913576 | 15° C | 99% | 1018.7 hPa | 0 mm | - | 0 W/m² | - |
* Rain latest hour (hover to see other rain measurements)
** Current wind speed in m/s (hover to see current wind gust speed)